Regional Weather Roundup
Issued by NWS

Home | Current Version | Previous Version | Graphics & Text | Print | Product List | Glossary On
Versions: 1 2 3 4 5 6 7 8 9 10 11 12 13 14 15 16 17 18 19 20 21 22 23 24 25 26 27 28 29 30 31 32 33 34 35 36 37 38 39 40 41 42 43 44 45 46 47 48 49 50
028
ASUS45 KTFX 241510
RWRMT
MONTANA REGIONAL WEATHER ROUNDUP
NATIONAL WEATHER SERVICE GREAT FALLS MT
900 AM MDT SAT JUN 24 2017

NOTE: "FAIR" INDICATES FEW OR NO CLOUDS BELOW 12000 FEET WITH NO
SIGNIFICANT WEATHER AND/OR OBSTRUCTIONS TO VISIBILITY.

MTZ001>007-043-241600-
WEST OF THE DIVIDE

CITY           SKY/WX    TMP DP  RH WIND       PRES   REMARKS
KALISPELL      SUNNY     62  46  55 NE12      30.29R
MISSOULA       SUNNY     59  41  51 W5        30.31S
BUTTE          SUNNY     54  37  52 N5        30.38F
MULLAN PASS    SUNNY     58  34  40 CALM      30.37R
ANACONDA         N/A     59  37  44 CALM      30.36S
DEER LODGE       N/A     57  43  58 CALM      30.38S
EUREKA           N/A     61  43  51 MISG      30.32S
HAMILTON         N/A     57  43  58 CALM      30.32R
$$

MTZ008-052>055-241600-
SOUTHWEST MONTANA

CITY           SKY/WX    TMP DP  RH WIND       PRES   REMARKS
BOZEMAN        SUNNY     58  41  53 NE3       30.36F
DILLON         SUNNY     55  37  50 VRB5      30.36S
W YELLOWSTONE  SUNNY     50  32  50 CALM      30.40F
ENNIS          SUNNY     54  36  50 CALM      30.41F
THREE FORKS      N/A     57  44  62 CALM      30.31S
$$

MTZ009-010-012-014-046-048-049-054-241600-
EAST SLOPES AND CENTRAL MONTANA

CITY           SKY/WX    TMP DP  RH WIND       PRES   REMARKS
CUT BANK       SUNNY     60  43  53 E3        30.35S
GREAT FALLS    SUNNY     58  41  53 W5        30.35S
MALMSTROM AFB  SUNNY     59  42  54 W5        30.35S
HELENA         SUNNY     60  39  45 CALM      30.35S
CHOTEAU          N/A     61  39  44 CALM      30.37S
$$

MTZ011-013-016-021-045-047-050-051-241600-
NORTH CENTRAL MONTANA

CITY           SKY/WX    TMP DP  RH WIND       PRES   REMARKS
HAVRE          PTSUNNY   56  40  55 SW5       30.33S
LEWISTOWN      SUNNY     60  36  40 CALM      30.36R
N BAR RANCH      N/A     61  32  33 N12       30.38S
CHINOOK          N/A     59  43  55 W3        30.32S
FORT BENTON      N/A     64  45  48 MISG      30.35S
$$

MTZ017>020-022>027-061-062-241600-
NORTHEAST MONTANA

CITY           SKY/WX    TMP DP  RH WIND       PRES   REMARKS
GLASGOW        SUNNY     56  35  45 CALM      30.31R
JORDAN           N/A     65  35  33 NE9       30.30R
SIDNEY         SUNNY     58  35  42 N14G22    30.29R
WOLF POINT     SUNNY     58  36  43 CALM      30.31R
MALTA          SUNNY     59  43  55 W5        30.32R
PLENTYWOOD       N/A     54  36  50 N15G21    30.28R
POPLAR           N/A     55  36  47 N7        30.31S
$$

MTZ028>42-056>058-241600-
SOUTHCENTRAL AND SOUTHEAST MONTANA

CITY           SKY/WX    TMP DP  RH WIND       PRES   REMARKS
BAKER          SUNNY     58  33  39 NW12      30.30R
BILLINGS       MOSUNNY   60  43  53 VRB5      30.35R
LIVINGSTON     SUNNY     54  40  59 W6        30.37S
MILES CITY     SUNNY     65  32  29 N9G18     30.29S
BIG TIMBER     SUNNY     55  39  54 W7        30.39S
FORSYTH          N/A     59  37  44 W7        30.30R
ROUNDUP          N/A     64  35  34 SE1       30.22S
$$

REGIONAL REPORTS...DAKOTAS

CITY           SKY/WX    TMP DP  RH WIND       PRES   REMARKS
WILLISTON      SUNNY     55  38  52 N20       30.28R
MINOT          CLOUDY    50  41  71 NW23G30   30.17R
DICKINSON      SUNNY     55  31  39 NW22G32   30.22R
BEACH            N/A     55  32  41 N15G22    30.31S
CROSBY         PTSUNNY   48  41  76 NW20G26   30.27R
TIOGA          PTSUNNY   48  43  81 NW22      30.26R
WATFORD CITY     N/A     52  39  62 N16G24    30.26R
BISMARCK       CLOUDY    55  39  54 N15G25    30.18R
GRAND FORKS    PTSUNNY   56  45  66 NW15      30.00S
FARGO          CLOUDY    56  48  74 NW10      30.03R
BUFFALO SD       N/A     60  35  39 N16       30.21R
RAPID CITY     SUNNY     68  31  25 N18G24    30.27R
$$

REGIONAL REPORTS...WYOMING/IDAHO/WASHINGTON

CITY           SKY/WX    TMP DP  RH WIND       PRES   REMARKS
GILLETTE       CLOUDY    55  38  52 W7        30.34R
SHERIDAN       CLOUDY    64  38  38 NW9       30.34R
BUFFALO WY     CLOUDY    61  37  41 N13       30.37R
CODY           SUNNY     61  34  36 VRB3      30.38S
YELLOWSTONE LA   N/A     46  32  58 CALM      30.46S
IDAHO FALLS    SUNNY     58  45  62 N3        30.29R
SALMON         SUNNY     55  41  58 N3        30.29S
BOISE          SUNNY     63  40  42 W5        30.20R
SPOKANE        MOSUNNY   63  44  50 NE8       30.25R
$$

REGIONAL REPORTS...ALBERTA

CITY           SKY/WX    TMP DP  RH WIND       PRES   REMARKS
EDMONTON       SUNNY     61  48  63 N12       30.28R
CALGARY        MOSUNNY   61  43  51 NW2       30.34S
LETHBRIDGE     MOSUNNY   59  48  67 SW5       30.33S
MEDICINE HAT   MOSUNNY   61  48  63 SW3       30.30S
WATERTON GATE    N/A     55  43  62 S1          N/A
MILK RIVER       N/A     63  43  48 N1          N/A
$$

REGIONAL REPORTS...SASKATCHEWAN

CITY           SKY/WX    TMP DP  RH WIND       PRES   REMARKS
SWIFT CURRENT  SUNNY     55  45  67 W6        30.29R
REGINA         MOSUNNY   52  41  66 N13       30.29R
SASKATOON      MOSUNNY   55  45  67 W7        30.27S
CYPRESS HILLS    N/A     55  34  44 NW6         N/A
$$




USA.gov is the U.S. government's official web portal to all federal, state and local government web resources and services.